Tracking 27122 objects as of 25-Mar-2023
HD Live streaming from Space Station
objects crossing your sky now

ATLAS 2 CENTAUR R/B

Track ATLAS 2 CENTAUR R/B now!
10-day predictions


NORAD ID: 23468
Int'l Code: 1995-003B
Perigee: 265.2 km
Apogee: 19,629.8 km
Inclination: 26.5 °
Period: 345.8 minutes
Semi major axis: 16318 km
RCS: 17.7119 m2 (large)
Launch date: January 29, 1995
Source: United States (US)
Launch site: AIR FORCE EASTERN TEST RANGE (AFETR)

Note: This is a ROCKET BODY
Your satellite tracking list
Your tracking list is empty




NASA's NSSDC Master Catalog

Two Line Element Set (TLE):
1 23468U 95003B   23084.16179145  .00017924  00000-0  22071-2 0  9998
2 23468  26.5001 172.3596 5933345  91.5107 332.9481  4.16470717366166
Source of the keplerian elements: AFSPC